Wetbulb
68.43 69.21 70.17 70.74 72.48 73.60 74.37 75.29 76.04 76.40 76.47 77.65 77.55 77.66 77.28 77.51 76.91 75.49 75.11 75.15 75.24 75.16 74.77 75.58 77.66 76.05 74.94 74.38 74.91 76.01 76.22 75.38 75.98
67.48 68.88 69.85 70.66 71.84 73.38 74.59 75.79 76.10 76.20 76.66 77.46 77.63 77.36 77.84 77.00 76.46 76.14 75.76 76.36 76.19 77.23 77.39 76.70 76.87 76.61 76.80 75.54 75.37 76.38 78.12 75.82 77.65
66.51 69.51 70.25 71.35 72.11 73.22 74.46 75.84 76.27 76.66 77.26 77.37 77.78 77.66 77.64 77.32 76.81 76.44 76.68 76.64 76.38 76.03 77.29 77.22 75.58 76.92 76.82 76.39 77.19 77.63 78.36 78.75 78.38
64.45 68.04 70.50 71.31 72.42 73.75 74.70 75.67 76.10 76.74 76.95 77.30 77.48 77.50 77.60 77.43 76.97 76.51 76.51 75.55 76.55 76.54 77.64 77.68 78.39 77.36 77.22 76.85 76.65 77.10 78.18 77.85 77.16
65.74 67.57 70.21 71.74 72.54 73.20 73.96 74.88 75.62 76.43 76.72 76.89 77.46 77.94 78.67 77.16 77.14 76.60 75.51 75.62 75.88 77.29 76.92 76.96 76.35 77.81 77.22 77.39 77.09 77.55 76.99 75.25 76.61
65.94 68.72 69.61 71.17 72.05 72.88 73.27 74.49 75.54 75.77 76.68 76.78 77.19 77.57 77.31 76.97 76.52 76.10 75.12 75.57 76.10 77.18 77.24 76.39 75.48 77.41 77.49 76.90 77.05 76.61 75.77 76.23 75.96
65.51 68.87 70.08 70.49 71.48 72.49 73.60 74.83 75.37 76.66 76.30 76.85 77.05 77.15 77.00 76.39 76.23 76.03 75.01 76.26 76.54 77.98 77.31 76.62 76.65 76.70 77.24 77.06 76.55 76.29 75.94 75.59 75.15
65.00 66.70 68.77 70.82 71.11 72.34 73.94 75.34 76.96 77.56 76.39 76.74 77.07 77.00 76.52 75.91 76.79 76.52 77.25 77.06 76.47 77.05 77.19 76.94 77.56 75.40 76.85 76.47 75.42 75.56 75.19 74.49 73.56
61.65 64.47 67.15 70.39 72.33 73.04 73.96 74.87 76.71 77.71 77.40 76.88 78.21 78.25 76.25 78.03 78.06 78.22 77.19 76.80 75.99 76.47 76.47 76.51 76.52 75.28 76.58 75.90 74.34 69.00 70.37 72.69 72.16
62.19 65.54 66.56 68.78 71.92 73.51 74.27 75.22 76.89 75.95 76.97 77.74 78.94 78.99 78.02 78.19 77.92 77.22 77.14 76.70 76.03 75.61 75.82 76.20 75.30 75.43 76.41 75.43 74.06 66.83 67.36 68.81 70.90
66.48 67.09 67.58 69.84 71.93 73.98 74.92 76.02 76.32 76.98 77.03 79.00 78.87 77.87 78.00 78.26 77.64 76.87 76.29 75.56 75.16 75.41 76.78 75.85 73.86 75.78 75.40 74.27 71.29 64.82 65.09 66.68 70.13
68.43 68.48 68.33 68.78 72.30 73.73 75.59 76.11 76.55 78.00 77.02 78.50 78.39 77.73 78.28 77.94 77.30 75.93 75.67 75.29 74.77 75.84 76.46 75.63 75.65 76.20 74.58 74.65 71.59 62.97 63.10 65.51 69.03
68.58 70.14 71.38 71.01 72.32 73.92 75.12 76.28 76.81 76.96 77.84 77.77 77.49 78.28 78.44 79.00 77.93 76.51 75.48 76.03 76.89 77.06 77.16 76.00 75.52 74.58 74.06 70.63 71.77 61.36 61.18 63.55 66.98
70.19 71.93 73.09 74.08 73.29 73.28 75.43 76.63 77.01 77.66 77.53 77.08 78.51 78.58 78.37 78.30 77.55 77.01 77.41 77.32 76.20 76.20 75.81 76.19 74.72 74.82 74.37 73.13 68.74 64.62 59.97 60.22 68.31
71.67 70.72 72.96 74.41 74.29 74.57 76.33 76.85 77.99 76.79 76.52 79.31 80.26 79.85 77.91 78.13 78.02 75.77 75.53 77.67 76.01 76.72 76.31 74.33 73.85 74.00 72.79 72.69 72.24 64.68 59.50 59.07 59.21
71.76 72.19 71.89 74.59 74.78 74.59 75.88 76.95 77.07 76.14 79.22 79.79 79.58 78.61 77.84 77.48 78.02 77.17 77.64 76.72 75.88 74.59 75.14 73.01 71.86 72.41 71.67 72.76 73.87 70.70 60.47 58.18 58.63
70.45 72.52 73.04 73.62 74.72 74.59 75.28 76.59 77.32 77.53 78.70 78.76 78.39 78.18 77.74 77.05 76.33 76.05 77.06 75.33 75.12 74.07 73.80 73.13 72.17 72.47 72.53 73.47 72.98 72.15 69.88 65.15 63.34
68.68 70.41 72.35 74.28 73.89 75.05 75.84 76.81 77.02 77.56 78.59 78.68 77.32 77.00 76.64 76.27 75.36 74.50 76.12 75.75 74.58 74.03 75.32 72.68 72.93 73.31 73.66 73.18 72.66 72.33 68.41 66.29 67.15
65.70 68.72 70.48 72.46 74.61 75.13 76.14 76.94 77.05 77.55 78.00 78.51 77.38 75.53 76.00 75.24 74.73 74.21 73.72 73.84 73.58 62.21 62.57 59.60 58.88 58.13 66.22 72.52 68.41 59.70 56.21 55.44 54.80
62.68 66.00 67.61 69.89 72.28 75.05 76.22 76.38 76.85 77.62 78.23 78.32 77.63 76.25 75.27 76.29 73.05 74.94 74.28 73.53 73.09 71.83 66.12 56.67 55.23 53.01 56.47 55.18 60.26 53.50 53.07 52.55 52.37
MSLP
999.14 999.51 999.56 1000.11 1001.34 1002.80 1004.43 1005.58 1007.30 1008.38 1009.39 1010.41 1011.15 1011.79 1012.71 1013.51 1013.91 1013.96 1014.26 1014.50 1014.94 1015.46 1014.99 1014.96 1014.90 1016.15 1016.67 1017.06 1017.24 1016.96 1016.81 1016.85 1016.73
998.19 999.22 999.54 1000.05 1000.78 1002.36 1003.53 1005.25 1006.88 1007.97 1008.39 1009.54 1010.34 1011.01 1011.92 1012.78 1013.46 1013.69 1013.64 1014.08 1014.60 1015.08 1014.97 1015.10 1015.09 1015.44 1016.03 1016.41 1016.68 1016.49 1016.47 1016.44 1016.76
997.31 998.61 999.58 1000.06 1000.78 1001.85 1003.03 1004.68 1006.09 1007.10 1007.72 1008.71 1009.46 1010.08 1011.05 1011.80 1012.56 1013.34 1013.31 1013.78 1014.22 1014.61 1014.80 1014.72 1015.09 1015.14 1015.53 1016.06 1016.35 1016.23 1016.28 1016.55 1016.80
997.15 997.67 999.12 999.94 1000.57 1001.52 1002.69 1003.85 1004.80 1006.13 1006.94 1007.87 1008.66 1009.30 1009.82 1010.71 1011.34 1011.96 1012.79 1013.39 1013.81 1014.08 1014.37 1014.79 1014.88 1015.10 1015.46 1015.85 1016.18 1016.30 1016.52 1016.55 1016.76
997.45 997.84 998.51 999.78 1000.56 1001.26 1002.11 1003.11 1004.08 1005.38 1006.21 1006.93 1007.73 1008.36 1009.28 1010.10 1010.85 1011.34 1011.83 1012.71 1013.37 1013.58 1013.97 1014.52 1014.81 1014.87 1015.35 1015.68 1015.91 1016.19 1016.48 1016.52 1016.59
997.60 998.24 998.73 999.28 1000.11 1000.93 1001.64 1002.44 1003.48 1004.25 1005.49 1006.10 1006.91 1007.78 1008.81 1009.63 1010.27 1010.88 1011.08 1011.89 1012.73 1013.21 1013.58 1014.15 1014.65 1014.74 1015.08 1015.55 1015.97 1016.18 1016.41 1016.62 1016.56
997.61 998.22 998.78 999.10 999.50 1000.28 1001.41 1002.01 1003.07 1003.80 1004.79 1005.48 1006.24 1007.04 1008.01 1009.12 1009.62 1010.14 1010.71 1011.04 1012.22 1012.76 1013.41 1013.74 1014.30 1014.46 1014.89 1015.23 1015.45 1016.05 1016.16 1016.48 1016.59
997.56 998.08 998.55 999.09 999.45 999.99 1001.23 1002.12 1002.88 1003.83 1004.47 1005.15 1005.80 1006.61 1007.64 1008.75 1009.34 1010.02 1010.32 1010.74 1011.67 1012.50 1013.08 1013.53 1013.88 1014.28 1014.49 1014.91 1015.16 1015.70 1016.18 1016.31 1016.77
997.12 997.54 998.13 998.94 999.62 999.92 1000.63 1002.01 1003.01 1003.76 1004.26 1004.89 1005.63 1006.49 1007.50 1008.25 1009.15 1009.82 1010.19 1010.74 1011.41 1012.33 1012.86 1013.18 1013.57 1014.01 1014.20 1014.66 1014.96 1015.57 1016.03 1016.23 1016.55
997.11 997.71 998.06 998.11 999.01 1000.00 1000.57 1001.66 1002.88 1003.74 1004.26 1005.06 1005.74 1006.64 1007.62 1008.24 1009.03 1009.62 1010.04 1010.65 1011.33 1012.04 1012.42 1012.74 1013.12 1013.57 1014.06 1014.52 1014.97 1015.66 1016.05 1016.43 1016.40
997.85 997.95 998.15 998.06 998.62 999.54 1000.52 1001.44 1002.70 1003.65 1004.32 1005.00 1005.93 1006.82 1007.59 1008.25 1008.88 1009.43 1009.95 1010.56 1011.08 1011.52 1012.19 1012.36 1012.76 1013.21 1013.97 1014.63 1015.37 1015.89 1016.30 1016.65 1016.52
998.40 997.97 997.61 997.44 998.21 999.04 1000.48 1001.44 1002.61 1003.41 1004.18 1005.05 1005.91 1006.57 1007.26 1008.05 1008.67 1009.27 1009.80 1010.21 1010.57 1011.11 1011.92 1012.39 1012.56 1013.21 1013.94 1014.20 1015.08 1015.78 1016.34 1016.58 1016.37
998.47 998.07 997.98 997.61 998.01 998.79 1000.06 1001.28 1002.27 1003.16 1003.91 1004.81 1005.64 1006.21 1006.83 1007.65 1008.22 1008.96 1009.35 1009.88 1010.38 1011.01 1011.62 1012.03 1012.13 1012.68 1013.65 1014.15 1014.76 1015.60 1016.22 1016.22 1015.95
999.07 998.80 998.65 998.49 998.45 998.57 999.52 1001.40 1002.05 1002.85 1003.68 1004.50 1005.32 1006.24 1006.81 1007.26 1007.90 1008.55 1009.00 1009.45 1010.16 1010.59 1011.24 1011.82 1011.86 1012.53 1013.27 1013.98 1014.62 1015.24 1015.62 1015.97 1015.92
999.85 999.36 999.11 999.05 999.08 999.05 999.70 1001.11 1002.13 1002.95 1003.52 1004.34 1005.18 1006.02 1006.79 1006.89 1007.42 1008.11 1008.66 1009.21 1009.68 1010.11 1010.82 1011.51 1012.04 1012.45 1013.06 1013.53 1014.09 1014.77 1015.41 1015.68 1015.72
1001.09 1000.10 999.68 999.50 999.28 999.96 1000.31 1001.31 1002.23 1003.11 1003.56 1004.21 1004.98 1005.68 1006.34 1006.71 1006.92 1007.54 1008.05 1008.78 1009.42 1009.73 1010.37 1010.88 1011.63 1011.93 1012.34 1012.49 1013.00 1013.86 1014.65 1014.99 1015.45
1002.40 1001.74 1001.00 1000.16 999.68 1000.03 1000.80 1001.53 1002.28 1002.81 1003.43 1004.16 1004.87 1005.44 1006.00 1006.40 1006.70 1007.07 1007.55 1008.14 1008.53 1008.88 1009.27 1009.87 1010.16 1010.51 1011.15 1011.76 1012.20 1012.99 1013.86 1014.87 1015.35
1003.46 1003.09 1002.55 1001.73 1000.86 1000.11 1000.58 1001.41 1002.19 1002.64 1002.91 1003.70 1004.42 1005.18 1005.65 1005.84 1006.17 1006.66 1006.97 1007.20 1007.21 1007.55 1007.81 1008.32 1008.85 1009.15 1009.85 1010.50 1010.97 1011.80 1012.43 1013.33 1014.05
1004.23 1003.78 1003.58 1002.96 1002.09 1001.28 1000.86 1001.14 1001.94 1002.39 1002.44 1002.96 1003.40 1004.37 1004.76 1004.91 1005.09 1005.67 1006.10 1006.51 1006.47 1006.87 1007.14 1007.67 1008.53 1008.79 1009.02 1009.30 1010.04 1010.78 1011.57 1012.21 1013.11
1004.74 1004.32 1004.00 1003.83 1003.39 1002.55 1002.07 1001.81 1001.73 1002.27 1002.21 1002.41 1002.79 1002.73 1003.36 1003.45 1004.23 1004.13 1004.76 1005.32 1005.70 1005.75 1007.48 1007.57 1007.80 1008.47 1008.84 1009.62 1009.79 1009.88 1010.68 1011.52 1012.34
Wind_Speed
3 5 11 16 21 21 24 21 20 19 21 18 19 18 16 13 12 8 9 11 9 8 9 6 7 11 9 7 8 10 9 8 8
7 3 7 10 15 17 18 19 20 21 20 19 19 19 14 13 13 14 9 10 10 8 9 4 5 8 9 8 8 8 9 8 3
7 9 7 11 13 18 18 18 21 23 20 19 19 18 16 14 15 14 11 8 10 11 10 8 5 8 9 10 7 8 8 4 5
8 10 11 10 14 16 18 19 21 18 19 19 18 17 17 15 14 14 13 9 10 11 10 9 8 8 8 7 8 6 6 6 5
7 3 9 12 13 15 17 19 19 20 18 19 18 16 13 14 12 12 14 11 11 11 12 10 8 9 9 8 8 5 5 5 6
2 1 5 10 14 14 15 18 17 19 18 18 18 16 16 15 15 14 14 14 11 11 12 12 9 10 9 8 8 6 5 4 4
8 5 5 9 12 15 16 15 16 15 18 17 16 17 16 14 15 13 13 12 11 11 11 12 11 10 10 10 9 7 7 6 4
5 2 4 8 10 12 14 13 14 12 15 16 16 15 15 15 13 13 11 10 11 11 11 10 11 8 10 10 8 8 8 7 7
11 4 2 6 8 10 15 16 13 13 14 15 14 13 14 13 12 10 10 10 11 10 10 12 11 10 10 9 8 10 9 6 8
10 13 12 6 11 12 13 16 15 14 15 13 12 11 11 11 12 12 10 10 10 11 11 11 12 10 11 11 9 10 9 2 8
11 9 11 7 8 11 13 15 17 16 16 13 12 12 12 12 12 11 11 11 11 11 9 10 9 10 11 11 7 10 9 7 6
11 13 13 9 8 11 13 15 16 14 15 13 14 14 13 13 12 12 12 11 12 9 9 9 9 10 11 12 10 12 11 10 8
14 14 12 11 7 11 15 15 17 16 15 15 15 15 15 13 12 12 13 11 10 9 9 9 10 11 11 8 11 13 14 10 7
13 12 10 9 7 9 14 14 16 16 15 16 15 14 14 14 13 12 11 11 11 10 9 9 7 10 10 12 10 11 13 13 8
15 11 11 5 6 5 12 15 13 14 14 14 13 13 14 15 13 12 12 12 10 10 9 10 10 11 8 8 11 15 15 15 13
16 15 9 10 3 5 8 13 14 16 12 14 14 15 15 15 15 13 13 13 13 11 10 10 10 9 7 10 10 10 17 15 13
14 14 14 11 8 7 8 11 13 14 13 14 15 15 15 14 14 14 14 13 13 12 13 12 12 11 10 9 11 9 11 12 12
13 12 13 13 11 6 9 10 11 13 13 15 14 14 14 15 14 15 13 13 13 14 14 13 12 12 12 11 11 13 14 14 13
11 11 12 10 11 9 6 8 10 11 13 15 15 11 13 13 13 14 13 13 13 8 8 17 15 11 8 10 15 16 18 20 16
10 10 9 10 9 11 5 7 8 9 9 13 15 16 14 13 14 14 14 13 13 13 4 4 13 11 9 7 4 15 20 20 18
Wind_Direction
89 225 221 201 189 195 188 186 192 187 192 193 196 197 200 205 216 220 217 217 210 220 239 254 144 174 191 210 246 233 234 243 239
151 189 210 199 186 193 185 179 195 199 196 193 199 199 198 190 199 229 207 210 208 224 235 224 164 175 189 200 223 228 227 229 248
154 146 200 190 192 187 186 190 192 203 194 196 199 200 195 198 195 206 229 196 214 211 225 241 216 198 203 192 212 235 222 219 236
339 145 174 199 191 186 189 191 189 192 195 193 198 203 191 203 200 197 208 189 207 209 212 223 226 195 207 203 204 225 235 217 217
13 352 169 184 196 190 190 187 189 190 194 195 199 191 193 194 209 210 197 202 205 207 204 205 221 203 193 207 201 189 209 228 196
5 263 194 183 185 193 200 188 197 186 191 198 192 187 189 198 200 201 222 191 217 200 203 204 213 197 194 190 191 184 186 232 153
10 150 212 233 197 191 197 194 190 198 189 193 197 185 186 195 212 206 212 203 184 214 206 199 204 196 184 195 187 175 177 172 180
51 345 249 209 239 191 185 198 185 195 193 196 194 188 186 191 204 203 215 189 197 206 207 202 196 197 187 184 190 180 174 169 178
336 22 249 240 214 225 182 192 187 192 199 192 194 179 198 176 181 200 211 191 206 195 198 201 195 193 192 176 181 112 129 192 169
338 6 322 270 210 215 202 190 187 189 195 189 184 170 200 167 174 197 199 189 188 194 196 191 188 186 184 180 141 131 136 194 172
358 326 322 273 233 199 203 191 182 193 188 180 178 169 192 176 181 191 192 184 187 194 188 187 188 176 174 167 154 142 149 187 178
339 316 312 273 221 199 194 192 181 186 181 175 177 179 183 181 181 191 189 190 189 183 180 181 177 163 166 168 150 159 170 193 176
347 334 330 308 220 190 179 188 178 180 177 174 184 185 178 179 178 193 184 186 181 176 179 181 187 163 162 176 163 169 188 193 190
330 338 322 320 264 230 166 182 183 181 175 185 182 183 176 175 179 189 188 177 174 177 177 173 182 167 180 173 167 175 186 204 249
338 329 326 321 278 253 156 179 177 181 185 177 177 174 182 177 173 191 180 186 171 176 172 171 190 181 181 188 173 173 195 202 228
348 339 341 321 287 207 174 180 184 194 184 173 179 175 189 182 170 189 172 178 187 185 177 193 197 188 186 191 189 174 176 191 209
357 349 336 332 306 169 194 184 197 200 183 182 185 185 190 184 180 186 178 187 188 196 190 204 202 193 196 200 188 191 183 200 206
358 357 346 333 320 300 180 191 202 208 185 183 191 195 200 193 192 190 186 203 198 203 204 197 209 196 203 199 200 198 186 184 192
351 357 356 346 326 313 321 188 196 207 208 186 191 192 209 206 201 186 202 204 211 207 239 176 208 232 229 192 198 177 178 174 188
340 349 6 357 343 334 324 295 196 190 212 183 203 191 196 216 213 206 200 208 216 208 171 183 198 207 233 102 215 169 172 175 177